This is the latest recevied weather packets stored in our database for station/object W1HS. If no packets are shown the sender has not sent any weather packets the latest 10 day(s).
| Time | Temp. | Humidity | Pressure | Rain* | Wind** | Luminosity | Snow |
|---|---|---|---|---|---|---|---|
| 1777161138 | 10° C | 51% | 997.6 hPa | 0 mm | - | 0 W/m² | - |
| 1777160540 | 10° C | 50% | 997.5 hPa | 0 mm | - | 0 W/m² | - |
| 1777159938 | 10.56° C | 50% | 997.2 hPa | 0 mm | - | 9 W/m² | - |
| 1777159340 | 10.56° C | 49% | 997.1 hPa | 0 mm | - | 16 W/m² | - |
| 1777158738 | 10.56° C | 49% | 997 hPa | 0 mm | - | 26 W/m² | - |
| 1777158138 | 10.56° C | 48% | 996.8 hPa | 0 mm | - | 39 W/m² | - |
| 1777157540 | 11.11° C | 48% | 996.8 hPa | 0 mm | - | 47 W/m² | - |
| 1777156938 | 11.11° C | 48% | 996.8 hPa | 0 mm | - | 65 W/m² | - |
| 1777156340 | 11.11° C | 47% | 996.8 hPa | 0 mm | - | 79 W/m² | - |
| 1777155740 | 11.11° C | 48% | 996.9 hPa | 0 mm | - | 83 W/m² | - |
| 1777155144 | 11.11° C | 45% | 996.8 hPa | 0 mm | - | 97 W/m² | - |
| 1777154540 | 11.11° C | 45% | 996.9 hPa | 0 mm | - | 134 W/m² | - |
| 1777153942 | 11.11° C | 45% | 996.9 hPa | 0 mm | - | 160 W/m² | - |
| 1777153340 | 11.11° C | 43% | 996.8 hPa | 0 mm | - | 175 W/m² | - |
| 1777152740 | 11.11° C | 44% | 996.8 hPa | 0 mm | - | 176 W/m² | - |
| 1777152140 | 11.11° C | 43% | 996.8 hPa | 0 mm | - | 195 W/m² | - |
| 1777151540 | 11.11° C | 42% | 996.8 hPa | 0 mm | - | 202 W/m² | - |
| 1777150940 | 11.11° C | 41% | 996.8 hPa | 0 mm | - | 214 W/m² | - |
| 1777150340 | 11.11° C | 41% | 996.8 hPa | 0 mm | - | 255 W/m² | - |
| 1777149831 | 11.67° C | 44% | 996.7 hPa | 0 mm | - | 309 W/m² | - |
| 1777149380 | 11.11° C | 42% | 996.8 hPa | 0 mm | - | 290 W/m² | - |
| 1777148780 | 11.67° C | 44% | 996.8 hPa | 0 mm | - | 272 W/m² | - |
| 1777148180 | 11.11° C | 43% | 996.8 hPa | 0 mm | - | 390 W/m² | - |
| 1777147580 | 11.11° C | 43% | 996.9 hPa | 0 mm | - | 346 W/m² | - |
| 1777146380 | 11.11° C | 44% | 997 hPa | 0 mm | - | 464 W/m² | - |
* Rain latest hour (hover to see other rain measurements)
** Current wind speed in m/s (hover to see current wind gust speed)